Latest Weather Observations for Bendigo

IDV60801

Issued at 3:05 pm EDT Saturday 25 October 2014 (issued every 30 minutes, with the page automatically refreshed every 10 minutes)

About weather observations | Map of weather stations | Latest weather observations for VIC | Other Formats
Station Details ID: 081123 Name: BENDIGO AIRPORT Lat: -36.74 Lon: 144.33 Height: 208.0 m
Data from the previous 72 hours. | See also: Recent months at Bendigo
Date/Time
EDT
Temp
°C
App
Temp
°C
Dew
Point
Rel
Hum
%
Delta-T
°C
Wind Press
QNH
hPa
Press
MSL
hPa
Rain
since 9 am
mm
Dir
 
Spd
km/h
Gust
km/h
Spd
kts
Gust
kts
25/03:00pm 28.7 27.5 9.4 30 10.8 NW 6 11 3 6 1012.1 1012.0 0.0
25/02:30pm 28.4 27.9 9.2 30 10.7 NNE 2 9 1 5 1012.7 1012.6 0.0
25/02:00pm 27.3 26.8 9.2 32 10.1 SE 2 6 1 3 1013.2 1013.1 0.0
25/01:30pm 27.1 25.4 8.5 31 10.2 NNE 7 15 4 8 1013.6 1013.5 0.0
25/01:00pm 27.3 26.5 9.6 33 9.9 NNE 4 15 2 8 1014.0 1013.9 0.0
25/12:30pm 26.1 26.0 9.4 35 9.3 CALM 0 7 0 4 1014.5 1014.4 0.0
25/12:00pm 25.9 25.7 10.5 38 8.7 NW 2 9 1 5 1015.0 1014.9 0.0
25/11:30am 24.3 23.3 10.9 43 7.5 ESE 7 15 4 8 1015.1 1015.0 0.0
25/11:00am 23.0 22.0 10.4 45 7.0 SSW 6 11 3 6 1015.3 1015.2 0.0
25/10:30am 21.8 20.3 10.6 49 6.2 E 9 13 5 7 1015.4 1015.3 0.0
25/10:00am 20.3 19.1 11.5 57 4.9 SE 9 15 5 8 1015.3 1015.2 0.0
25/09:30am 18.6 16.1 11.2 62 4.1 SSE 15 22 8 12 1015.5 1015.4 0.0
25/09:00am 17.5 15.4 11.1 66 3.5 SE 13 17 7 9 1015.6 1015.5 0.0
25/08:30am 15.8 13.4 11.4 75 2.4 SE 15 20 8 11 1015.7 1015.7 0.0
25/08:00am 15.2 12.4 11.4 78 2.1 SE 17 24 9 13 1015.4 1015.3 0.0
25/07:30am 14.2 12.3 11.7 85 1.4 SE 13 20 7 11 1015.6 1015.5 0.0
25/07:00am 13.4 12.2 11.5 88 1.0 SE 9 13 5 7 1015.4 1015.3 0.0
25/06:30am 13.3 11.7 11.5 89 1.0 SE 11 17 6 9 1015.0 1014.9 0.0
25/06:00am 13.7 11.0 11.7 88 1.1 SSE 17 22 9 12 1014.8 1014.7 0.0
25/05:30am 13.7 10.5 11.9 89 1.0 SSE 20 28 11 15 1014.4 1014.3 0.0
25/05:00am 13.8 11.5 11.8 88 1.1 SSE 15 20 8 11 1014.4 1014.3 0.0
25/04:30am 14.0 11.9 11.3 84 1.4 SSE 13 17 7 9 1014.2 1014.1 0.0
25/04:00am 12.2 10.8 9.6 84 1.3 S 7 11 4 6 1014.2 1014.1 0.0
25/03:30am 11.7 11.1 7.2 74 2.2 CALM 0 0 0 0 1014.0 1013.9 0.0
25/03:00am 12.6 12.0 7.5 71 2.5 CALM 0 0 0 0 1014.2 1014.1 0.0
25/02:30am 12.6 12.0 7.3 70 2.6 CALM 0 0 0 0 1014.3 1014.2 0.0
25/02:00am 13.2 12.5 7.0 66 3.0 CALM 0 0 0 0 1014.4 1014.3 0.0
25/01:30am 15.6 15.3 8.8 64 3.5 CALM 0 0 0 0 1014.5 1014.4 0.0
25/01:00am 14.2 13.6 7.3 63 3.4 CALM 0 0 0 0 1014.5 1014.4 0.0
25/12:30am 15.4 14.8 7.2 58 4.1 CALM 0 0 0 0 1014.5 1014.4 0.0
25/12:00am 18.1 16.4 8.4 53 5.0 SW 7 9 4 5 1014.4 1014.3 0.0
 
Date/Time
EDT
Temp
°C
App
Temp
°C
Dew
Point
Rel
Hum
%
Delta-T
°C
Wind Press
QNH
hPa
Press
MSL
hPa
Rain
since 9 am
mm
Dir
 
Spd
km/h
Gust
km/h
Spd
kts
Gust
kts
24/11:30pm 18.9 16.6 7.4 47 5.9 SW 9 11 5 6 1014.5 1014.4 0.0
24/11:00pm 20.3 17.9 5.1 37 7.5 SW 7 9 4 5 1014.4 1014.3 0.0
24/10:30pm 22.2 18.8 3.8 30 9.0 WSW 11 15 6 8 1014.2 1014.1 0.0
24/10:18pm 22.0 19.4 4.1 31 8.8 SW 7 9 4 5 1014.1 1014.0 0.0
24/10:00pm 17.0 15.0 6.2 49 5.3 WSW 6 9 3 5 1013.9 1013.8 0.0
24/09:30pm 18.3 17.3 5.8 44 6.2 CALM 0 0 0 0 1013.5 1013.4 0.0
24/09:00pm 19.2 18.1 4.9 39 7.0 CALM 0 0 0 0 1013.1 1013.0 0.0
24/08:30pm 21.7 20.6 5.2 34 8.3 CALM 0 0 0 0 1012.7 1012.6 0.0
24/08:00pm 25.8 23.0 3.1 23 11.2 WNW 7 9 4 5 1012.4 1012.3 0.0
24/07:30pm 27.7 26.1 2.7 20 12.4 CALM 0 0 0 0 1011.7 1011.7 0.0
24/07:00pm 29.1 24.5 1.6 17 13.6 W 15 22 8 12 1011.6 1011.6 0.0
24/06:30pm 30.4 25.1 1.8 16 14.3 W 19 26 10 14 1011.4 1011.3 0.0
24/06:00pm 30.6 25.3 1.9 16 14.4 NW 19 22 10 12 1011.1 1011.0 0.0
24/05:30pm 30.8 25.0 0.2 14 14.9 WSW 20 26 11 14 1010.8 1010.7 0.0
24/05:00pm 31.1 26.5 1.4 15 14.8 WNW 15 22 8 12 1010.8 1010.7 0.0
24/04:30pm 30.8 25.4 1.2 15 14.6 WNW 19 32 10 17 1011.0 1010.9 0.0
24/04:00pm 30.3 24.8 0.8 15 14.5 WNW 19 30 10 16 1011.1 1011.0 0.0
24/03:30pm 29.6 23.1 0.2 15 14.2 W 24 35 13 19 1011.4 1011.3 0.0
24/03:00pm 29.3 24.5 4.7 21 12.8 WNW 19 24 10 13 1011.5 1011.4 0.0
24/02:30pm 30.3 25.7 5.6 21 13.1 WNW 19 32 10 17 1011.7 1011.7 0.0
24/02:00pm 29.0 24.8 8.1 27 11.5 N 20 26 11 14 1011.9 1011.8 0.0
24/01:30pm 28.1 23.8 7.9 28 11.0 WNW 20 35 11 19 1012.2 1012.1 0.0
24/01:00pm 28.1 25.1 10.8 34 9.9 WNW 17 26 9 14 1012.3 1012.2 0.0
24/12:30pm 25.9 23.7 13.4 46 7.4 W 17 26 9 14 1012.7 1012.6 0.0
24/12:00pm 25.3 23.1 13.2 47 7.1 WNW 17 26 9 14 1012.8 1012.7 0.0
24/11:30am 25.3 23.4 14.1 50 6.7 WNW 17 22 9 12 1013.0 1012.9 0.0
24/11:00am 25.0 24.3 14.2 51 6.5 W 11 17 6 9 1013.1 1013.0 0.0
24/10:30am 23.4 22.4 13.3 53 5.9 W 11 17 6 9 1013.0 1012.9 0.0
24/10:00am 22.4 22.6 13.2 56 5.3 WNW 4 11 2 6 1013.1 1013.0 0.0
24/09:30am 21.5 22.4 12.9 58 4.9 CALM 0 7 0 4 1012.7 1012.6 0.0
24/09:00am 20.9 20.6 12.8 60 4.6 ESE 6 11 3 6 1012.6 1012.5 0.0
24/08:30am 20.1 19.1 12.3 61 4.4 ESE 9 15 5 8 1012.6 1012.5 0.0
24/08:00am 18.8 18.0 13.0 69 3.3 SSE 9 13 5 7 1012.5 1012.4 0.0
24/07:30am 17.3 16.5 13.0 76 2.4 SSE 9 13 5 7 1012.6 1012.5 0.0
24/07:00am 14.7 14.9 12.0 84 1.5 SE 2 7 1 4 1012.5 1012.4 0.0
24/06:30am 15.6 14.6 12.2 80 1.9 SSE 9 13 5 7 1012.0 1011.9 0.0
24/06:00am 14.6 13.8 11.6 82 1.6 SE 7 9 4 5 1011.9 1011.8 0.0
24/05:30am 16.1 14.7 12.3 78 2.1 SSE 11 13 6 7 1011.9 1011.8 0.0
24/05:00am 16.8 15.2 12.7 77 2.3 SSE 13 20 7 11 1011.2 1011.1 0.0
24/04:30am 16.9 14.6 13.0 78 2.2 SSE 17 20 9 11 1011.1 1011.0 0.0
24/04:00am 16.8 14.9 12.9 78 2.2 SSE 15 19 8 10 1011.1 1011.0 0.0
24/03:30am 17.0 15.1 12.9 77 2.3 SSE 15 20 8 11 1011.3 1011.2 0.0
24/03:00am 17.0 15.8 12.9 77 2.3 SSE 11 17 6 9 1011.6 1011.6 0.0
24/02:30am 17.5 16.4 13.0 75 2.5 SSE 11 15 6 8 1011.7 1011.7 0.0
24/02:00am 18.1 16.6 13.2 73 2.8 SSE 13 19 7 10 1012.1 1012.0 0.0
24/01:30am 17.5 15.1 12.8 74 2.6 SSE 17 20 9 11 1012.6 1012.5 0.0
24/01:00am 17.8 15.5 12.9 73 2.8 SSE 17 20 9 11 1013.0 1012.9 0.0
24/12:30am 17.8 14.9 12.9 73 2.8 SSE 20 26 11 14 1013.0 1012.9 0.0
24/12:00am 17.7 14.4 12.8 73 2.8 SSE 22 26 12 14 1013.2 1013.1 0.0
 
Date/Time
EDT
Temp
°C
App
Temp
°C
Dew
Point
Rel
Hum
%
Delta-T
°C
Wind Press
QNH
hPa
Press
MSL
hPa
Rain
since 9 am
mm
Dir
 
Spd
km/h
Gust
km/h
Spd
kts
Gust
kts
23/11:30pm 17.8 14.5 12.9 73 2.8 SSE 22 28 12 15 1013.5 1013.4 0.0
23/11:00pm 17.8 14.9 12.9 73 2.8 SSE 20 26 11 14 1013.5 1013.4 0.0
23/10:30pm 17.7 14.0 12.8 73 2.8 SSE 24 32 13 17 1013.4 1013.3 0.0
23/10:00pm 17.9 14.5 12.6 71 3.0 SSE 22 30 12 16 1013.4 1013.3 0.0
23/09:30pm 18.4 14.7 12.8 70 3.2 SSE 24 32 13 17 1013.3 1013.2 0.0
23/09:00pm 19.0 15.4 13.0 68 3.4 SSE 24 32 13 17 1013.1 1013.0 0.0
23/08:30pm 20.1 17.1 13.8 67 3.7 SSE 22 32 12 17 1012.8 1012.7 0.0
23/08:00pm 22.0 19.3 14.6 63 4.4 SSE 22 28 12 15 1012.7 1012.6 0.0
23/07:30pm 24.6 22.9 14.7 54 6.0 SSE 17 26 9 14 1012.4 1012.3 0.0
23/07:00pm 26.6 24.8 14.4 47 7.4 SE 17 22 9 12 1012.1 1012.0 0.0
23/06:30pm 27.4 26.1 14.8 46 7.7 SE 15 20 8 11 1012.1 1012.0 0.0
23/06:00pm 28.5 27.0 14.3 41 8.6 SE 15 20 8 11 1012.1 1012.0 0.0
23/05:30pm 29.1 27.9 14.1 40 9.1 ESE 13 20 7 11 1012.2 1012.1 0.0
23/05:00pm 29.3 28.4 12.7 36 9.9 ESE 9 20 5 11 1012.3 1012.2 0.0
23/04:30pm 29.8 29.3 12.7 35 10.2 SSE 7 19 4 10 1012.6 1012.5 0.0
23/04:00pm 29.0 27.8 11.6 34 10.1 ESE 9 17 5 9 1013.0 1012.9 0.0
23/03:30pm 29.2 27.5 12.6 36 9.8 E 13 20 7 11 1013.3 1013.2 0.0
23/03:00pm 28.9 26.3 13.9 39 9.1 SSE 20 24 11 13 1013.5 1013.4 0.0
23/02:30pm 27.8 25.4 13.7 42 8.4 ESE 19 30 10 16 1014.0 1013.9 0.0
23/02:00pm 27.4 25.5 14.1 44 8.0 SE 17 26 9 14 1014.3 1014.2 0.0
23/01:30pm 26.9 24.6 14.0 45 7.7 ESE 19 32 10 17 1014.8 1014.7 0.0
23/01:00pm 26.4 24.0 13.9 46 7.5 SE 19 26 10 14 1015.2 1015.1 0.0
23/12:30pm 24.9 22.1 13.1 48 6.9 SE 20 30 11 16 1015.5 1015.4 0.0
23/12:00pm 24.4 21.3 13.3 50 6.5 SE 22 30 12 16 1015.7 1015.7 0.0
23/11:30am 24.1 21.4 13.6 52 6.2 ESE 20 28 11 15 1016.2 1016.2 0.0
23/11:00am 23.5 20.8 13.4 53 5.9 SE 20 30 11 16 1016.4 1016.4 0.0
23/10:30am 22.8 20.4 13.8 57 5.3 SE 19 30 10 16 1016.7 1016.7 0.0
23/10:00am 21.3 18.6 13.5 61 4.5 SSE 20 28 11 15 1017.0 1016.9 0.0
23/09:30am 20.1 16.5 13.1 64 4.0 SSE 24 32 13 17 1017.0 1016.9 0.0
23/09:00am 18.5 14.8 12.7 69 3.3 SE 24 33 13 18 1017.2 1017.1 0.0
23/08:30am 17.0 13.9 12.1 73 2.7 SE 20 32 11 17 1017.2 1017.1 0.0
23/08:00am 16.1 13.5 12.1 77 2.2 SE 17 24 9 13 1017.0 1016.9 0.0
23/07:30am 15.7 12.2 12.1 79 2.0 SSE 22 30 12 16 1016.6 1016.6 0.0
23/07:00am 15.2 12.0 11.8 80 1.9 SSE 20 28 11 15 1016.5 1016.5 0.0
23/06:30am 14.9 11.8 11.5 80 1.8 SE 19 26 10 14 1016.3 1016.3 0.0
23/06:00am 15.3 12.5 11.5 78 2.1 SE 17 26 9 14 1016.2 1016.2 0.0
23/05:30am 15.6 11.8 11.2 75 2.4 SSE 22 30 12 16 1015.7 1015.7 0.0
23/05:00am 16.2 12.9 10.9 71 2.9 SSE 19 24 10 13 1015.8 1015.8 0.0
23/04:30am 16.6 14.1 10.9 69 3.1 SSE 15 20 8 11 1015.9 1015.9 0.0
23/04:00am 17.0 14.6 11.5 70 3.0 SSE 15 20 8 11 1015.9 1015.9 0.0
23/03:30am 17.4 15.2 12.1 71 2.9 SSE 15 20 8 11 1015.9 1015.9 0.0
23/03:00am 17.9 16.2 12.4 70 3.1 SE 13 19 7 10 1016.1 1016.1 0.0
23/02:30am 18.8 16.7 12.3 66 3.7 SSE 15 20 8 11 1016.4 1016.4 0.0
23/02:00am 19.8 17.3 12.3 62 4.2 SSE 17 26 9 14 1016.2 1016.2 0.0
23/01:30am 19.3 17.2 12.3 64 3.9 SSE 15 20 8 11 1016.3 1016.3 0.0
23/01:00am 19.4 17.2 12.2 63 4.0 SSE 15 19 8 10 1016.2 1016.2 0.0
23/12:30am 19.8 17.6 12.1 61 4.3 SSE 15 20 8 11 1016.2 1016.2 0.0
23/12:00am 19.1 18.6 10.9 59 4.5 SE 4 7 2 4 1016.3 1016.3 0.0
 
Date/Time
EDT
Temp
°C
App
Temp
°C
Dew
Point
Rel
Hum
%
Delta-T
°C
Wind Press
QNH
hPa
Press
MSL
hPa
Rain
since 9 am
mm
Dir
 
Spd
km/h
Gust
km/h
Spd
kts
Gust
kts
22/11:30pm 21.3 20.9 11.1 52 5.7 ESE 4 11 2 6 1016.3 1016.3 0.0
22/11:00pm 21.2 20.2 11.0 52 5.7 ESE 7 11 4 6 1016.2 1016.2 0.0
22/10:30pm 22.7 20.5 10.8 47 6.6 S 13 20 7 11 1016.2 1016.2 0.0
22/10:00pm 23.9 20.2 9.5 40 7.9 ESE 19 30 10 16 1015.7 1015.7 0.0
22/09:56pm 23.1 19.6 10.9 46 6.8 ESE 20 30 11 16 1016.0 1016.0 0.0
22/09:30pm 22.9 20.4 12.2 51 6.1 WSW 17 26 9 14 1018.3 1018.2 0.0
22/09:00pm 24.1 19.5 11.1 44 7.3 WSW 26 39 14 21 1018.9 1018.8 0.0
22/08:30pm 25.5 20.7 11.7 42 7.9 W 28 44 15 24 1018.5 1018.4 0.0
22/08:22pm 24.9 20.9 13.1 48 6.9 WNW 26 35 14 19 1018.1 1018.0 0.0
22/08:00pm 22.9 22.4 12.8 53 5.8 SE 7 9 4 5 1016.0 1016.0 0.0
22/07:30pm 24.2 24.6 12.5 48 6.8 ESE 2 7 1 4 1016.0 1016.0 0.0
22/07:00pm 26.2 25.2 12.3 42 8.1 E 9 17 5 9 1015.7 1015.7 0.0
22/06:30pm 27.3 26.9 12.5 40 8.7 E 6 13 3 7 1015.6 1015.5 0.0
22/06:00pm 27.0 24.0 11.9 39 8.8 E 19 28 10 15 1015.3 1015.2 0.0
22/05:30pm 28.0 25.2 11.5 35 9.6 NE 17 20 9 11 1015.8 1015.8 0.0
22/05:00pm 28.1 25.5 12.0 36 9.4 NE 17 26 9 14 1016.1 1016.1 0.0
22/04:30pm 27.7 25.0 11.7 37 9.3 NE 17 26 9 14 1016.4 1016.4 0.0
22/04:00pm 27.5 25.0 11.1 36 9.4 NNE 15 20 8 11 1017.0 1016.9 0.0
22/03:30pm 27.4 25.2 12.2 39 8.9 NE 15 22 8 12 1017.3 1017.2 0.0

Other Formats:

Comma delimited format used in spreadsheet applications
http://www.bom.gov.au/fwo/IDV60801/IDV60801.94855.axf

JavaScript Object Notation format (JSON) in row-major order
http://www.bom.gov.au/fwo/IDV60801/IDV60801.94855.json